Brier Island, Nova Scotia

1:24 AM ADT on May 01, 2017 (GMT -0300)
Brier Island

Weather History for CWVU - February, 2013

Change the Weather History Date:

Tuesday, February 19, 2013

  Actual Average Record
Temperature  
Mean Temperature 31 °F -  
Max Temperature 37 °F - - ()
Min Temperature 25 °F - - ()
Degree Days  
Heating Degree Days 34    
Moisture  
Dew Point 24 °F    
Average Humidity 72    
Maximum Humidity 86    
Minimum Humidity 58    
Precipitation  
Precipitation 0.00 in - - ()
Sea Level Pressure  
Sea Level Pressure 30.00 in    
Wind  
Wind Speed 22 mph ()    
Max Wind Speed 34 mph    
Max Gust Speed 43 mph    
T = Trace of Precipitation, MM = Missing Value Source: Averaged Metar Reports

Daily Weather History Graph

Daily Weather History Graph

Search for Another Location

Airport or City:

Trip Planner

Search our weather history database for the weather conditions in past years. The results will help you decide how hot, cold, wet, or windy it might be!

Date:

Astronomy

Feb. 19, 2013 Rise Set
Actual Time 7:18 AM AST 6:00 PM AST
Civil Twilight 6:49 AM AST 6:29 PM AST
Nautical Twilight 6:15 AM AST 7:03 PM AST
Astronomical Twilight 5:41 AM AST 7:37 PM AST
Moon 12:21 PM AST (2/19) 2:54 AM AST (2/19)
Length of Visible Light 11h 40m
Length of Day
10h 41m
Waxing Gibbous, 67% of the Moon is Illuminated
Feb 19
Waxing Gibbous
Feb 25
Full
Mar 4
Last Quarter
Mar 11
New
Mar 19
First Quarter

Hourly Weather History & Observations

Time (AST) Temp. Windchill Dew Point Humidity Pressure Visibility Wind Dir Wind Speed Gust Speed Precip Events Conditions
12:00 AM 27.0 °F 10.0 °F 20.1 °F 75% 29.80 in - West 33.4 mph 42.6 mph N/A   Unknown
1:00 AM 26.4 °F 9.1 °F 19.0 °F 74% 29.84 in - West 34.5 mph 42.6 mph N/A   Unknown
2:00 AM 27 °F - 19 °F 63% 29.87 in - West 31.1 mph - -  
2:00 AM 27.0 °F 10.5 °F 19.4 °F 73% 29.87 in - West 31.1 mph - N/A   Unknown
3:00 AM 27.7 °F 11.0 °F 20.7 °F 75% 29.90 in - West 33.4 mph 41.4 mph N/A   Unknown
4:00 AM 28.0 °F 12.3 °F 21.0 °F 75% 29.94 in - West 29.9 mph 35.7 mph N/A   Unknown
5:00 AM 28.6 °F 12.0 °F 19.8 °F 70% 29.96 in - West 34.5 mph 41.4 mph N/A   Unknown
6:00 AM 29.1 °F 14.2 °F 20.5 °F 70% 29.99 in - West 27.6 mph - N/A   Unknown
7:00 AM 29.5 °F 14.0 °F 20.3 °F 69% 30.01 in - West 31.1 mph - N/A   Unknown
8:00 AM 30 °F - 22 °F 62% 30.03 in - West 27.6 mph - -  
8:00 AM 29.8 °F 15.2 °F 22.1 °F 73% 30.03 in - West 27.6 mph - N/A   Unknown
9:00 AM 30.6 °F 16.2 °F 21.9 °F 70% 30.04 in - West 27.6 mph - N/A   Unknown
10:00 AM 30.4 °F 16.5 °F 22.1 °F 71% 30.06 in - West 25.3 mph - N/A   Unknown
11:00 AM 31.5 °F 18.5 °F 24.1 °F 74% 30.06 in - West 23.0 mph - N/A   Unknown
12:00 PM 31.8 °F 19.9 °F 24.1 °F 73% 30.07 in - West 19.6 mph - N/A   Unknown
1:00 PM 32.9 °F 22.4 °F 24.1 °F 70% 30.06 in - WNW 16.1 mph - N/A   Unknown
2:00 PM 34 °F - 25 °F 58% 30.06 in - West 15.0 mph - -  
2:00 PM 34.2 °F 24.4 °F 24.8 °F 69% 30.06 in - West 15.0 mph - N/A   Unknown
3:00 PM 35.6 °F 29.9 °F 25.2 °F 66% 30.07 in - West 6.9 mph - N/A   Unknown
4:00 PM 36.5 °F 31.8 °F 25.3 °F 64% 30.08 in - West 5.8 mph - N/A   Unknown
5:00 PM 35.1 °F - 27.7 °F 74% 30.07 in - SE 2.3 mph - N/A   Unknown
6:00 PM 34.9 °F 29.9 °F 29.3 °F 80% 30.06 in - South 5.8 mph - N/A   Unknown
7:00 PM 35.1 °F 29.3 °F 29.7 °F 81% 30.06 in - South 6.9 mph - N/A   Unknown
9:00 PM 37.4 °F 28.9 °F 33.1 °F 84% 30.01 in - SE 13.8 mph - N/A   Unknown
10:00 PM 36.5 °F 26.7 °F 31.8 °F 83% 29.97 in - SE 17.3 mph - N/A   Unknown
11:00 PM 36.7 °F 27.2 °F 32.9 °F 86% 29.94 in - SE 16.1 mph - N/A   Unknown